When you browse on this site, cookies collect data to enhance your experience and personalize the content and advertising you see.
Visit our Privacy Policy to learn more. By continuing to use the site, you agree to this use of cookies and data.
  • In Deutschland
  • Länderverzeichnis
  • Für 7 Tage
  • Wassertemperatur
  • Wetterkarte
  • Widgets
  • user-avatar
    Anmelden

    Stündliche Wetter Eisenstadt

    Heute, 25 August, Sonntag

    Zeit Temperatur Niederschläge Wind Luftdruck Luftfeuchtigkeit
    00:00 +20°C° 0.1 mm 1 m/S 726 mmHg 88%
    01:00 +18°C° 0.1 mm 0 m/S 725 mmHg 87%
    02:00 +17°C° 0.1 mm 0 m/S 725 mmHg 87%
    03:00 +17°C° 0.1 mm 0 m/S 725 mmHg 87%
    04:00 +19°C° 0.1 mm 1 m/S 725 mmHg 87%
    05:00 +20°C° 0.2 mm 1 m/S 725 mmHg 85%
    06:00 +21°C° 0.2 mm 1 m/S 725 mmHg 84%
    07:00 +22°C° 0.2 mm 1 m/S 726 mmHg 83%
    08:00 +23°C° 0.4 mm 1 m/S 726 mmHg 78%
    09:00 +25°C° 0.4 mm 1 m/S 726 mmHg 73%
    10:00 +26°C° 0.4 mm 1 m/S 726 mmHg 68%
    11:00 +27°C° 0.7 mm 1 m/S 726 mmHg 64%
    12:00 +28°C° 0.7 mm 1 m/S 726 mmHg 60%
    13:00 +29°C° 0.7 mm 1 m/S 726 mmHg 56%
    14:00 +29°C° 0.4 mm 1 m/S 725 mmHg 57%
    15:00 +29°C° 0.4 mm 1 m/S 725 mmHg 58%
    16:00 +28°C° 0.4 mm 1 m/S 725 mmHg 59%
    17:00 +26°C° 0.3 mm 1 m/S 725 mmHg 66%
    18:00 +24°C° 0.3 mm 2 m/S 724 mmHg 73%
    19:00 +21°C° 0.3 mm 2 m/S 724 mmHg 80%
    20:00 +20°C° 0.3 mm 2 m/S 724 mmHg 81%
    21:00 +20°C° 0.3 mm 2 m/S 725 mmHg 82%
    22:00 +19°C° 0.3 mm 2 m/S 725 mmHg 82%
    23:00 +19°C° 0.3 mm 2 m/S 725 mmHg 84%

    Morgen, 26 August, Montag

    Zeit Temperatur Niederschläge Wind Luftdruck Luftfeuchtigkeit
    00:00 +20°C° 0.3 mm 1 m/S 725 mmHg 85%
    01:00 +19°C° 0.3 mm 1 m/S 725 mmHg 87%
    02:00 +19°C° 0 mm 1 m/S 725 mmHg 86%
    03:00 +19°C° 0 mm 1 m/S 725 mmHg 86%
    04:00 +19°C° 0 mm 1 m/S 725 mmHg 85%
    05:00 +20°C° 0 mm 1 m/S 725 mmHg 84%
    06:00 +21°C° 0 mm 1 m/S 725 mmHg 82%
    07:00 +22°C° 0 mm 1 m/S 725 mmHg 80%
    08:00 +23°C° 0.1 mm 1 m/S 725 mmHg 74%
    09:00 +25°C° 0.1 mm 1 m/S 726 mmHg 68%
    10:00 +26°C° 0.1 mm 1 m/S 726 mmHg 62%
    11:00 +27°C° 0.1 mm 2 m/S 726 mmHg 59%
    12:00 +28°C° 0.1 mm 2 m/S 725 mmHg 57%
    13:00 +28°C° 0.1 mm 2 m/S 725 mmHg 54%
    14:00 +28°C° 0.3 mm 2 m/S 725 mmHg 56%
    15:00 +28°C° 0.3 mm 2 m/S 724 mmHg 58%
    16:00 +28°C° 0.3 mm 1 m/S 724 mmHg 60%
    17:00 +26°C° 0.8 mm 1 m/S 724 mmHg 65%
    18:00 +25°C° 0.8 mm 1 m/S 724 mmHg 71%
    19:00 +23°C° 0.8 mm 1 m/S 724 mmHg 77%
    20:00 +23°C° 0.5 mm 1 m/S 724 mmHg 79%
    21:00 +22°C° 0.5 mm 1 m/S 724 mmHg 80%
    22:00 +22°C° 0.5 mm 1 m/S 724 mmHg 82%
    23:00 +21°C° 0 mm 1 m/S 724 mmHg 82%

    übermorgen, 27 August, Dienstag

    Zeit Temperatur Niederschläge Wind Luftdruck Luftfeuchtigkeit
    00:00 +21°C° 0 mm 1 m/S 724 mmHg 83%
    01:00 +21°C° 0 mm 1 m/S 724 mmHg 84%
    02:00 +18°C° 0 mm 0 m/S 724 mmHg 85%
    03:00 +18°C° 0 mm 0 m/S 724 mmHg 86%
    04:00 +18°C° 0 mm 0 m/S 724 mmHg 87%
    05:00 +19°C° 0 mm 0 m/S 724 mmHg 85%
    06:00 +21°C° 0 mm 1 m/S 724 mmHg 83%
    07:00 +22°C° 0 mm 1 m/S 724 mmHg 81%
    08:00 +24°C° 0 mm 1 m/S 725 mmHg 75%
    09:00 +26°C° 0 mm 1 m/S 725 mmHg 68%
    10:00 +27°C° 0 mm 1 m/S 725 mmHg 61%
    11:00 +28°C° 0 mm 2 m/S 725 mmHg 57%
    12:00 +29°C° 0 mm 2 m/S 725 mmHg 54%
    13:00 +30°C° 0 mm 2 m/S 725 mmHg 50%
    14:00 +30°C° 0 mm 2 m/S 725 mmHg 50%
    15:00 +30°C° 0 mm 2 m/S 724 mmHg 50%
    16:00 +30°C° 0 mm 2 m/S 724 mmHg 51%
    17:00 +28°C° 0 mm 2 m/S 724 mmHg 58%
    18:00 +26°C° 0 mm 1 m/S 724 mmHg 65%
    19:00 +24°C° 0 mm 1 m/S 724 mmHg 72%
    20:00 +24°C° 0 mm 1 m/S 724 mmHg 74%
    21:00 +23°C° 0 mm 1 m/S 724 mmHg 75%
    22:00 +23°C° 0 mm 1 m/S 724 mmHg 77%
    23:00 +22°C° 0 mm 1 m/S 724 mmHg 78%

    28 August, Mittwoch

    Zeit Temperatur Niederschläge Wind Luftdruck Luftfeuchtigkeit
    00:00 +22°C° 0 mm 1 m/S 724 mmHg 79%
    01:00 +22°C° 0 mm 1 m/S 724 mmHg 80%
    02:00 +21°C° 0 mm 1 m/S 724 mmHg 80%
    03:00 +21°C° 0 mm 1 m/S 724 mmHg 81%
    04:00 +21°C° 0 mm 1 m/S 724 mmHg 82%
    05:00 +22°C° 0 mm 1 m/S 724 mmHg 79%
    06:00 +23°C° 0 mm 1 m/S 724 mmHg 77%
    07:00 +24°C° 0 mm 1 m/S 724 mmHg 74%
    08:00 +25°C° 0 mm 1 m/S 724 mmHg 67%
    09:00 +27°C° 0 mm 2 m/S 724 mmHg 60%
    10:00 +29°C° 0 mm 3 m/S 724 mmHg 53%
    11:00 +30°C° 0 mm 3 m/S 724 mmHg 51%
    12:00 +30°C° 0 mm 3 m/S 724 mmHg 48%
    13:00 +32°C° 0 mm 4 m/S 723 mmHg 46%
    14:00 +31°C° 0 mm 3 m/S 723 mmHg 47%
    15:00 +31°C° 0 mm 3 m/S 723 mmHg 47%
    16:00 +31°C° 0 mm 3 m/S 722 mmHg 48%
    17:00 +29°C° 0.1 mm 2 m/S 722 mmHg 54%
    18:00 +27°C° 0.1 mm 2 m/S 722 mmHg 61%
    19:00 +25°C° 0.1 mm 1 m/S 721 mmHg 67%
    20:00 +24°C° 0 mm 1 m/S 722 mmHg 68%
    21:00 +24°C° 0 mm 1 m/S 722 mmHg 69%
    22:00 +23°C° 0 mm 1 m/S 722 mmHg 70%
    23:00 +23°C° 0 mm 1 m/S 722 mmHg 71%

    29 August, Donnerstag

    Zeit Temperatur Niederschläge Wind Luftdruck Luftfeuchtigkeit
    00:00 +23°C° 0 mm 1 m/S 722 mmHg 72%
    01:00 +22°C° 0 mm 1 m/S 722 mmHg 73%
    02:00 +22°C° 0 mm 1 m/S 722 mmHg 74%
    03:00 +22°C° 0 mm 1 m/S 721 mmHg 75%
    04:00 +21°C° 0 mm 1 m/S 721 mmHg 76%
    05:00 +22°C° 0 mm 1 m/S 722 mmHg 73%
    06:00 +23°C° 0 mm 1 m/S 722 mmHg 71%
    07:00 +24°C° 0 mm 1 m/S 722 mmHg 68%
    08:00 +26°C° 0.1 mm 1 m/S 722 mmHg 59%
    09:00 +27°C° 0.1 mm 2 m/S 722 mmHg 50%
    10:00 +29°C° 0.1 mm 2 m/S 723 mmHg 41%
    11:00 +30°C° 0 mm 3 m/S 723 mmHg 39%
    12:00 +30°C° 0 mm 3 m/S 722 mmHg 36%
    13:00 +31°C° 0 mm 3 m/S 722 mmHg 33%
    14:00 +31°C° 0 mm 3 m/S 722 mmHg 34%
    15:00 +31°C° 0 mm 2 m/S 722 mmHg 35%
    16:00 +31°C° 0 mm 2 m/S 722 mmHg 36%
    17:00 +29°C° 0 mm 1 m/S 722 mmHg 41%
    18:00 +27°C° 0 mm 1 m/S 722 mmHg 45%
    19:00 +25°C° 0 mm 1 m/S 722 mmHg 50%
    20:00 +24°C° 0 mm 1 m/S 722 mmHg 51%
    21:00 +24°C° 0 mm 1 m/S 723 mmHg 51%
    22:00 +23°C° 0 mm 1 m/S 723 mmHg 52%
    23:00 +23°C° 0 mm 2 m/S 723 mmHg 57%

    30 August, Freitag

    Zeit Temperatur Niederschläge Wind Luftdruck Luftfeuchtigkeit
    00:00 +21°C° 0 mm 2 m/S 723 mmHg 61%
    01:00 +21°C° 0 mm 2 m/S 723 mmHg 66%
    02:00 +20°C° 0 mm 2 m/S 723 mmHg 70%
    03:00 +20°C° 0 mm 3 m/S 724 mmHg 74%
    04:00 +20°C° 0 mm 3 m/S 724 mmHg 78%
    05:00 +20°C° 0 mm 2 m/S 724 mmHg 77%
    06:00 +21°C° 0 mm 2 m/S 724 mmHg 76%
    07:00 +21°C° 0 mm 2 m/S 725 mmHg 74%
    08:00 +23°C° 0 mm 2 m/S 725 mmHg 71%
    09:00 +24°C° 0 mm 2 m/S 725 mmHg 68%
    10:00 +25°C° 0 mm 2 m/S 726 mmHg 64%
    11:00 +25°C° 0 mm 2 m/S 726 mmHg 62%
    12:00 +26°C° 0 mm 2 m/S 725 mmHg 61%
    13:00 +26°C° 0 mm 2 m/S 725 mmHg 59%
    14:00 +26°C° 0 mm 2 m/S 725 mmHg 60%
    15:00 +26°C° 0 mm 2 m/S 725 mmHg 62%
    16:00 +26°C° 0 mm 1 m/S 724 mmHg 63%
    17:00 +24°C° 0.2 mm 1 m/S 724 mmHg 68%
    18:00 +23°C° 0.2 mm 1 m/S 724 mmHg 73%
    19:00 +22°C° 0.2 mm 1 m/S 724 mmHg 78%
    20:00 +22°C° 0.1 mm 1 m/S 724 mmHg 78%
    21:00 +21°C° 0.1 mm 1 m/S 725 mmHg 78%
    22:00 +21°C° 0.1 mm 1 m/S 725 mmHg 78%
    23:00 +21°C° 0 mm 1 m/S 725 mmHg 78%
    Mehr zeigen